Regional Weather Roundup
Issued by NWS

Home | Current Version | Previous Version | Text Only | Print | Product List | Glossary On
Versions: 1 2 3 4 5 6 7 8 9 10 11 12 13 14 15 16 17 18 19 20 21 22 23 24 25 26 27 28 29 30 31 32 33 34 35 36 37 38 39 40 41 42 43 44 45 46 47 48 49 50
000
ASUS43 KTOP 200308
RWRKS

WEATHER ROUNDUP FOR KANSAS
NATIONAL WEATHER SERVICE GOODLAND KS
900 PM CST SUN NOV 19 2017

NOTE:  "FAIR" INDICATES FEW OR NO CLOUDS BELOW 12,000 FEET WITH NO
SIGNIFICANT WEATHER AND/OR OBSTRUCTIONS TO VISIBILITY.

KSZ001>006-013>018-027>032-041>047-200400-
NORTHWEST KANSAS

CITY           SKY/WX    TMP DP  RH WIND       PRES   REMARKS
GOODLAND       CLOUDY    48  16  27 SW14      29.93F
HAYS           CLOUDY    41  24  51 SW6       29.98F
HILL CITY      CLOUDY    45  26  47 W6        29.96F
RUSSELL        CLOUDY    42  23  46 S13       29.96F
$$

KSZ061>065-074>080-084>089-200400-
SOUTHWEST KANSAS

CITY           SKY/WX    TMP DP  RH WIND       PRES   REMARKS
DODGE CITY     CLEAR     44  18  35 S10       30.01F
ELKHART        CLEAR     42  19  40 SW14      30.01F
GARDEN CITY    CLOUDY    40  19  43 S8        29.99F
GREAT BEND     CLOUDY    45  20  36 S12       30.00F
LIBERAL        CLEAR     38  18  44 S9        30.03S
PRATT          CLEAR     44  17  34 S14       30.04S
$$

KSZ066>073-081>083-090>101-200400-
SOUTHEAST KANSAS

CITY           SKY/WX    TMP DP  RH WIND       PRES   REMARKS
CHANUTE        CLOUDY    41  30  65 S8        30.13F
COFFEYVILLE    CLOUDY    43  29  57 S8        30.15F
HUTCHINSON     CLEAR     48  24  39 S12       30.04F
MEDICINE LODGE   N/A     43  23  45 S10       30.06F
NEWTON         CLOUDY    45  24  43 S13       30.06F
PARSONS        CLOUDY    43  30  60 S5        30.15F
WICHITA INTL   CLEAR     44  25  47 S13       30.07F
WICHITA JABRA  CLEAR     49  24  37 S14       30.07S
WICHITA MCCONL CLEAR     46  22  39 SW14      30.07F
WINFIELD       CLEAR     45  26  47 S10       30.12F
$$

KSZ007>012-019>026-033>040-048>060-102>105-200400-
NORTHEAST KANSAS

CITY           SKY/WX    TMP DP  RH WIND       PRES   REMARKS
CONCORDIA      CLOUDY    46  21  37 S17       29.96F
EMPORIA        CLOUDY    43  25  49 S15       30.06F
LAWRENCE       CLEAR     44  30  57 S10       30.06F
MANHATTAN      CLEAR     46  24  42 SW12      30.01F
MARYSVILLE     CLOUDY    45  27  49 S10       29.98F
OLATHE IND     CLEAR     43  30  60 S13       30.08F
OLATHE EXE     CLEAR     42  30  62 S10       30.07F
SALINA         CLOUDY    51  24  34 S17G25    30.01F
TOPEKA BILLARD CLEAR     47  26  44 S7        30.04F
TOPEKA FORBES  CLEAR     45  26  47 S10       30.04F
$$



USA.gov is the U.S. government's official web portal to all federal, state and local government web resources and services.